DMSP 5D-2 F14 (USA 131)

Last updated on Wed May 20 2020 05:09:28 GMT+0000 (Coordinated Universal Time)

1 24753U 97012A 20140.90144119 .00000007 00000-0 27128-4 0 9997 2 24753 99.0226 157.2558 0007694 289.1804 70.8536 14.15889451194179
UTC large
Height (km)
Speed (km/s)
/
Latitude / Longitude
Inclination (degrees)
Orbital Period (minutes)
Azimuth
Elevation
Range (km)
Doppler Factor

Next 0 passes for location: London (51.5072 / 0.1276)

Sorry there are no passes over London.